Location: Azul
(36.7830°S, 59.8500°W)
Time: 12:33:38
(UTC-03:00)

ISS - Pass Details

Date: 22 February 2018
Orbit: 403 x 406 km, 51.6° (Epoch: 26 February)

Event Time Altitude Azimuth Distance (km) Brightness Sun altitude
Rises 20:23:30 0° 310° (NW) 2,325 0.5 -7.8°
Reaches altitude 10° 20:25:34 10° 309° (NW) 1,472 -0.5 -8.2°
Maximum altitude 20:28:52 81° 222° (SW) 422 -3.7 -8.8°
Drops below altitude 10° 20:32:14 10° 133° (SE) 1,491 -1.2 -9.5°
Sets 20:34:20 0° 131° (SE) 2,360 -0.2 -9.9°
